Flag for El Salvador Weather past 2 weeks in San Salvador, El Salvador

Now
79 °F

Passing clouds.


Feels Like: 82 °F
Forecast: 72 / 85 °F
Wind: 9 mph from South

Location: San Salvador / Ilopango


UV Index: 7 (High)

Visibility: N/A


Pressure: 29.89 "Hg

Humidity: 84%

Dew point: 73 °F

Location of San SalvadorLocation

Historic Weather in San Salvador

°F

San Salvador temperature yesterday

Maximum temperature yesterday: 90 °F (at 11:50 AM)
Minimum temperature yesterday: 73 °F (at 5:50 AM)
Average temperature yesterday: 81 °F

Past Weeks' High & Low Weather Summary

 TemperatureHumidityPressure
High93 °F (Apr 12, 12:50 PM)100% (Apr 17, 7:50 AM)30.09 "Hg (Apr 17, 7:50 AM)
Low64 °F (Apr 15, 5:50 AM)36% (Apr 9, 1:50 PM)29.86 "Hg (Apr 14, 5:50 PM)
Average80 °F69%29.97 "Hg
* Reported Apr 8 6:50 PM — Apr 23 5:50 PM, San Salvador, Weather by CustomWeather, © 2014

Note: Actual official high and low records may vary slightly from our data, if they occured in-between our weather recording intervals... More about our weather records

Advertising

Historic Weather Conditions — Data for Previous 24 hours

 ConditionsComfort  
Time TempWeatherWind HumidityBarometerVisibility
5:50 PM
Apr 23
79 °FPassing clouds.9 mph84%29.89 "HgN/A
4:50 PM82 °FPassing clouds.8 mph74%29.89 "HgN/A
3:50 PM84 °FPassing clouds.8 mph74%29.86 "HgN/A
2:50 PM86 °FPassing clouds.5 mph62%29.89 "HgN/A
1:50 PM84 °FPassing clouds.5 mph66%29.92 "HgN/A
12:50 PM86 °FPassing clouds.5 mph66%29.95 "HgN/A
11:50 AM84 °FPassing clouds.6 mph66%30.01 "HgN/A
10:50 AM82 °FScattered clouds.5 mph70%30.01 "HgN/A
9:50 AM79 °FScattered clouds.6 mph79%30.04 "HgN/A
8:50 AM73 °FScattered clouds.2 mph94%30.01 "HgN/A
7:50 AM73 °FScattered clouds.2 mph94%30.01 "HgN/A
6:50 AM73 °FPassing clouds.2 mph94%29.98 "Hg4 mi
5:50 AM72 °FPassing clouds.3 mph94%29.98 "Hg4 mi
2:00 AMN/A30 mphN/AN/AN/A
11:50 PM
Apr 22
73 °FPassing clouds.3 mph89%29.98 "HgN/A
10:50 PM75 °FThunderstorms. Passing clouds.2 mph83%29.98 "HgN/A
9:50 PM77 °FThunderstorms. Passing clouds.6 mph79%29.98 "Hg5 mi
8:50 PM75 °FPassing clouds.No wind83%29.95 "HgN/A
7:50 PM75 °FPassing clouds.6 mph83%29.89 "Hg5 mi
Weather by CustomWeather, © 2014

See weather overview